Centralia, IL

3:37 PM CST on February 11, 2016 (GMT -0600)
Centralia Municipal

Weather History for KENL - October, 2013

Change the Weather History Date:

Friday, October 4, 2013

  Actual Average (KSLO) Record (KSLO)
Temperature  
Mean Temperature 78 °F -  
Max Temperature 88 °F 74 °F 89 °F (1967)
Min Temperature 70 °F 50 °F 31 °F (1968)
Cooling Degree Days 14    
Growing Degree Days 28 (Base 50)    
Moisture  
Dew Point 69 °F    
Average Humidity 76    
Maximum Humidity 91    
Minimum Humidity 55    
Precipitation  
Precipitation 0.00 in - - ()
Sea Level Pressure  
Sea Level Pressure 29.99 in    
Wind  
Wind Speed 7 mph (SSE)    
Max Wind Speed 15 mph    
Max Gust Speed 25 mph    
Visibility 10 miles    
Events      
Averages and records for this station are not official NWS values.
T = Trace of Precipitation, MM = Missing Value Source: NWS Daily Summary

Daily Weather History Graph

Daily Weather History Graph

Search for Another Location

Airport or City:

Trip Planner

Search our weather history database for the weather conditions in past years. The results will help you decide how hot, cold, wet, or windy it might be!

Date:

Astronomy

Oct. 04, 2013 Rise Set
Actual Time 6:55 AM CDT 6:34 PM CDT
Civil Twilight 6:28 AM CDT 7:00 PM CDT
Nautical Twilight 5:57 AM CDT 7:31 PM CDT
Astronomical Twilight 5:27 AM CDT 8:02 PM CDT
Moon 6:30 AM CDT (10/4) 6:17 PM CDT (10/4)
Length of Visible Light 12h 31m
Length of Day
11h 38m
Waning Crescent, 0% of the Moon is Illuminated
Oct 4
Waning Crescent
Oct 4
New
Oct 11
First Quarter
Oct 18
Full
Oct 26
Last Quarter

Hourly Weather History & Observations

Time (CDT) Temp. Heat Index Dew Point Humidity Pressure Visibility Wind Dir Wind Speed Gust Speed Precip Events Conditions
12:15 AM 74.3 °F - 66.7 °F 77% 29.97 in 10.0 mi SSE 6.9 mph - N/A   Clear
12:35 AM 74.1 °F - 66.7 °F 78% 29.97 in 10.0 mi SSE 5.8 mph - N/A   Clear
12:55 AM 73.4 °F - 66.7 °F 80% 29.98 in 10.0 mi SE 5.8 mph - N/A   Clear
1:15 AM 72.7 °F - 66.6 °F 81% 29.98 in 10.0 mi SE 4.6 mph - N/A   Clear
1:35 AM 72.5 °F - 66.6 °F 82% 29.99 in 10.0 mi ESE 4.6 mph - N/A   Clear
1:55 AM 71.8 °F - 66.2 °F 83% 29.99 in 10.0 mi ESE 4.6 mph - N/A   Clear
2:15 AM 71.2 °F - 66.4 °F 85% 29.99 in 10.0 mi SE 4.6 mph - N/A   Clear
2:35 AM 71.2 °F - 66.6 °F 85% 29.99 in 10.0 mi SE 5.8 mph - N/A   Clear
2:55 AM 71.4 °F - 66.7 °F 85% 29.99 in 10.0 mi SE 4.6 mph - N/A   Clear
3:15 AM 71.2 °F - 67.1 °F 87% 29.99 in 10.0 mi SSE 4.6 mph - N/A   Clear
3:35 AM 70.7 °F - 67.1 °F 88% 29.98 in 10.0 mi SSE 3.5 mph - N/A   Clear
3:55 AM 70.2 °F - 66.7 °F 89% 29.99 in 10.0 mi SSE 4.6 mph - N/A   Scattered Clouds
4:15 AM 70.2 °F - 67.1 °F 90% 29.99 in 10.0 mi SSE 5.8 mph - N/A   Clear
4:35 AM 70.9 °F - 67.8 °F 90% 29.99 in 10.0 mi SSE 6.9 mph - N/A   Scattered Clouds
4:55 AM 71.2 °F - 68.0 °F 89% 29.99 in 10.0 mi SSE 6.9 mph - N/A   Scattered Clouds
5:15 AM 71.2 °F - 68.2 °F 90% 30.00 in 10.0 mi SSE 6.9 mph - N/A   Scattered Clouds
5:35 AM 71.2 °F - 68.2 °F 90% 30.00 in 10.0 mi SSE 5.8 mph - N/A   Clear
5:55 AM 71.2 °F - 68.4 °F 91% 30.00 in 7.0 mi SSE 6.9 mph - N/A   Scattered Clouds
6:15 AM 71.6 °F - 68.9 °F 91% 30.00 in 7.0 mi South 6.9 mph - N/A   Clear
6:35 AM 71.8 °F - 68.7 °F 90% 30.01 in 7.0 mi SSE 6.9 mph - N/A   Clear
6:55 AM 71.6 °F - 68.9 °F 91% 30.02 in 7.0 mi South 8.1 mph - N/A   Scattered Clouds
7:15 AM 71.8 °F - 68.9 °F 91% 30.02 in 7.0 mi South 6.9 mph - N/A   Clear
7:35 AM 72.1 °F - 69.3 °F 91% 30.03 in 7.0 mi South 4.6 mph - N/A   Scattered Clouds
7:55 AM 72.7 °F - 69.8 °F 91% 30.03 in 7.0 mi South 5.8 mph - N/A   Mostly Cloudy
8:15 AM 73.0 °F - 69.8 °F 90% 30.03 in 7.0 mi South 6.9 mph - N/A   Scattered Clouds
8:35 AM 74.3 °F - 70.3 °F 87% 30.03 in 7.0 mi South 8.1 mph - N/A   Mostly Cloudy
8:55 AM 74.8 °F - 70.7 °F 87% 30.03 in 10.0 mi South 10.4 mph - N/A   Overcast
9:15 AM 76.5 °F - 71.1 °F 83% 30.03 in 10.0 mi South 10.4 mph - N/A   Overcast
9:35 AM 77.4 °F - 71.2 °F 81% 30.03 in 10.0 mi SSW 11.5 mph 16.1 mph N/A   Mostly Cloudy
9:55 AM 79.2 °F - 71.4 °F 77% 30.03 in 10.0 mi South 12.7 mph - N/A   Scattered Clouds
10:15 AM 80.1 °F 83.6 °F 71.2 °F 74% 30.02 in 10.0 mi South 11.5 mph 17.3 mph N/A   Scattered Clouds
10:35 AM 80.4 °F 84.1 °F 71.2 °F 73% 30.02 in 10.0 mi SSW 11.5 mph - N/A   Scattered Clouds
10:55 AM 82.4 °F 87.2 °F 71.6 °F 70% 30.02 in 10.0 mi South 13.8 mph - N/A   Scattered Clouds
11:15 AM 83.1 °F 88.1 °F 71.4 °F 68% 30.02 in 10.0 mi South 12.7 mph - N/A   Scattered Clouds
11:35 AM 84.2 °F 89.3 °F 71.4 °F 65% 30.02 in 10.0 mi South 15.0 mph 18.4 mph N/A   Scattered Clouds
11:55 AM 83.8 °F 88.6 °F 71.1 °F 65% 30.01 in 10.0 mi South 12.7 mph 18.4 mph N/A   Scattered Clouds
12:15 PM 84.4 °F 89.0 °F 70.7 °F 63% 30.01 in 10.0 mi South 9.2 mph - N/A   Scattered Clouds
12:35 PM 84.4 °F 89.0 °F 70.7 °F 63% 30.01 in 10.0 mi South 12.7 mph - N/A   Scattered Clouds
12:55 PM 86.2 °F 91.4 °F 70.7 °F 60% 30.00 in 10.0 mi South 9.2 mph - N/A   Scattered Clouds
1:15 PM 86.5 °F 91.8 °F 70.7 °F 59% 30.00 in 10.0 mi South 9.2 mph 18.4 mph N/A   Clear
1:35 PM 86.2 °F 91.4 °F 70.9 °F 60% 29.99 in 10.0 mi South 11.5 mph - N/A   Scattered Clouds
1:55 PM 86.7 °F 91.7 °F 70.5 °F 58% 29.98 in 10.0 mi SSE 10.4 mph - N/A   Scattered Clouds
2:15 PM 86.9 °F 91.7 °F 70.2 °F 57% 29.98 in 10.0 mi South 10.4 mph - N/A   Clear
2:35 PM 86.4 °F 91.1 °F 69.8 °F 58% 29.97 in 10.0 mi South 9.2 mph - N/A   Scattered Clouds
2:55 PM 87.1 °F 92.4 °F 70.5 °F 58% 29.97 in 10.0 mi SSE 12.7 mph - N/A   Mostly Cloudy
3:15 PM 86.4 °F 91.1 °F 70.0 °F 58% 29.96 in 10.0 mi South 13.8 mph - N/A   Scattered Clouds
3:35 PM 86.0 °F 90.7 °F 70.0 °F 59% 29.96 in 10.0 mi South 12.7 mph - N/A   Mostly Cloudy
3:55 PM 87.6 °F 92.7 °F 70.2 °F 56% 29.95 in 10.0 mi South 11.5 mph 17.3 mph N/A   Scattered Clouds
4:15 PM 86.5 °F 91.0 °F 69.8 °F 57% 29.95 in 10.0 mi South 11.5 mph 18.4 mph N/A   Scattered Clouds
4:35 PM 87.6 °F 92.3 °F 69.6 °F 55% 29.95 in 10.0 mi South 12.7 mph 18.4 mph N/A   Scattered Clouds
4:55 PM 86.5 °F 90.7 °F 69.1 °F 56% 29.95 in 10.0 mi South 11.5 mph - N/A   Clear
5:15 PM 85.8 °F 89.7 °F 68.9 °F 57% 29.95 in 10.0 mi SSE 9.2 mph - N/A   Clear
5:35 PM 85.8 °F 89.4 °F 68.7 °F 56% 29.96 in 10.0 mi South 9.2 mph - N/A   Clear
5:55 PM 83.8 °F 87.8 °F 69.4 °F 62% 29.97 in 10.0 mi SSE 5.8 mph - N/A   Clear
6:15 PM 82.6 °F 86.6 °F 70.0 °F 66% 29.97 in 10.0 mi SSE 4.6 mph - N/A   Clear
6:35 PM 80.6 °F 83.9 °F 69.8 °F 70% 29.97 in 10.0 mi SSE 4.6 mph - N/A   Scattered Clouds
6:55 PM 79.2 °F - 69.8 °F 73% 29.97 in 10.0 mi SSE 4.6 mph - N/A   Scattered Clouds
7:15 PM 80.6 °F 83.6 °F 69.3 °F 68% 29.98 in 10.0 mi South 13.8 mph 25.3 mph N/A   Scattered Clouds
7:35 PM 79.2 °F - 67.8 °F 68% 29.98 in 10.0 mi South 9.2 mph - N/A   Scattered Clouds
7:55 PM 78.4 °F - 68.0 °F 70% 29.98 in 10.0 mi South 8.1 mph - N/A   Scattered Clouds
8:15 PM 77.4 °F - 68.4 °F 74% 29.99 in 10.0 mi South 9.2 mph - N/A   Mostly Cloudy
8:35 PM 76.6 °F - 68.5 °F 76% 29.99 in 10.0 mi South 6.9 mph - N/A   Scattered Clouds
8:55 PM 75.7 °F - 68.9 °F 79% 30.00 in 10.0 mi South 6.9 mph - N/A   Scattered Clouds
9:15 PM 75.4 °F - 68.9 °F 80% 30.00 in 10.0 mi SSE 4.6 mph - N/A   Scattered Clouds
9:35 PM 75.0 °F - 69.1 °F 82% 30.00 in 10.0 mi SSE 4.6 mph - N/A   Scattered Clouds
9:55 PM 75.2 °F - 69.8 °F 83% 30.00 in 10.0 mi SSE 5.8 mph - N/A   Clear
10:15 PM 75.4 °F - 70.3 °F 84% 30.00 in 10.0 mi SSE 6.9 mph - N/A   Clear
10:35 PM 76.1 °F - 71.1 °F 84% 30.00 in 10.0 mi SSE 6.9 mph - N/A   Clear
10:55 PM 76.1 °F - 71.2 °F 85% 30.00 in 10.0 mi SSE 6.9 mph - N/A   Clear
11:15 PM 75.7 °F - 71.6 °F 87% 30.00 in 10.0 mi SSE 8.1 mph - N/A   Clear
11:35 PM 75.7 °F - 71.6 °F 87% 29.99 in 10.0 mi SSE 8.1 mph - N/A   Clear
11:55 PM 75.6 °F - 71.6 °F 87% 29.99 in 10.0 mi SSE 8.1 mph - N/A   Clear